Time,TemperatureF,DewpointF,PressureIn,WindDirection,WindDirectionDegrees,WindSpeedMPH,WindSpeedGustMPH,Humidity,HourlyPrecipIn,Conditions,Clouds,dailyrainin,SoftwareType,DateUTC
2013-02-06 00:01:00,28.0,25.0,30.06,WNW,283,0.0,0.0,87,0.00,,,0.00,,2013-02-06 06:01:00,
2013-02-06 00:11:00,28.0,25.0,30.06,WNW,283,0.0,0.0,87,0.00,,,0.00,,2013-02-06 06:11:00,
2013-02-06 00:21:00,27.0,24.0,30.06,WNW,284,0.0,0.0,87,0.00,,,0.00,,2013-02-06 06:21:00,
2013-02-06 00:31:00,27.0,23.0,30.07,WNW,283,0.0,0.0,85,0.00,,,0.00,,2013-02-06 06:31:00,
2013-02-06 00:42:00,27.0,23.0,30.07,WNW,283,0.0,0.0,85,0.00,,,0.00,,2013-02-06 06:42:00,
2013-02-06 00:52:00,27.0,24.0,30.07,West,278,0.0,0.0,88,0.00,,,0.00,,2013-02-06 06:52:00,
2013-02-06 01:01:00,27.0,24.0,30.06,ENE,60,0.0,0.0,87,0.00,,,0.00,,2013-02-06 07:01:00,
2013-02-06 01:11:00,27.0,24.0,30.06,ENE,60,0.0,0.0,87,0.00,,,0.00,,2013-02-06 07:11:00,
2013-02-06 01:21:00,27.0,24.0,30.06,ESE,103,1.0,1.0,87,0.00,,,0.00,,2013-02-06 07:21:00,
2013-02-06 01:32:00,28.0,25.0,30.05,ESE,102,0.0,1.0,87,0.00,,,0.00,,2013-02-06 07:32:00,
2013-02-06 01:41:00,28.0,25.0,30.05,ESE,102,0.0,1.0,87,0.00,,,0.00,,2013-02-06 07:41:00,
2013-02-06 01:52:00,28.0,24.0,30.05,ESE,112,0.0,0.0,86,0.00,,,0.00,,2013-02-06 07:52:00,
2013-02-06 02:01:00,29.0,26.0,30.05,East,96,0.0,1.0,88,0.00,,,0.00,,2013-02-06 08:01:00,
2013-02-06 02:11:00,29.0,26.0,30.05,East,96,0.0,1.0,88,0.00,,,0.00,,2013-02-06 08:11:00,
2013-02-06 02:21:00,30.0,27.0,30.06,SE,126,1.0,3.0,87,0.00,,,0.00,,2013-02-06 08:21:00,
2013-02-06 02:31:00,32.0,27.0,30.05,East,86,0.0,7.0,82,0.00,,,0.00,,2013-02-06 08:31:00,
2013-02-06 02:41:00,32.0,27.0,30.05,East,86,0.0,7.0,82,0.00,,,0.00,,2013-02-06 08:41:00,
2013-02-06 02:53:00,32.0,28.0,30.05,ESE,123,3.0,5.0,84,0.00,,,0.00,,2013-02-06 08:53:00,
2013-02-06 03:01:00,33.0,28.0,30.04,SE,133,5.0,9.0,81,0.00,,,0.00,,2013-02-06 09:01:00,
2013-02-06 03:11:00,33.0,28.0,30.04,SE,133,5.0,9.0,81,0.00,,,0.00,,2013-02-06 09:11:00,
2013-02-06 03:21:00,34.0,28.0,30.04,SE,135,4.0,7.0,80,0.00,,,0.00,,2013-02-06 09:21:00,
2013-02-06 03:31:00,35.0,29.0,30.03,SE,136,8.0,11.0,78,0.00,,,0.00,,2013-02-06 09:31:00,
2013-02-06 03:41:00,35.0,29.0,30.03,SE,136,8.0,11.0,78,0.00,,,0.00,,2013-02-06 09:41:00,
2013-02-06 03:52:00,36.0,29.0,30.03,SE,124,8.0,13.0,77,0.00,,,0.00,,2013-02-06 09:52:00,
2013-02-06 04:01:00,37.0,30.0,30.02,SE,130,9.0,13.0,75,0.00,,,0.00,,2013-02-06 10:01:00,
2013-02-06 04:11:00,37.0,30.0,30.02,SE,130,9.0,13.0,75,0.00,,,0.00,,2013-02-06 10:11:00,
2013-02-06 04:21:00,37.0,29.0,30.03,SSE,164,7.0,14.0,73,0.00,,,0.00,,2013-02-06 10:21:00,
2013-02-06 04:31:00,37.0,29.0,30.02,ESE,111,8.0,13.0,73,0.00,,,0.00,,2013-02-06 10:31:00,
2013-02-06 04:42:00,37.0,29.0,30.02,ESE,111,8.0,13.0,73,0.00,,,0.00,,2013-02-06 10:42:00,
2013-02-06 04:52:00,37.0,29.0,30.02,SSE,150,7.0,13.0,72,0.00,,,0.00,,2013-02-06 10:52:00,
2013-02-06 05:01:00,37.0,29.0,30.02,SSE,163,6.0,10.0,74,0.00,,,0.00,,2013-02-06 11:01:00,
2013-02-06 05:11:00,37.0,29.0,30.02,SSE,163,6.0,10.0,74,0.00,,,0.00,,2013-02-06 11:11:00,
2013-02-06 05:22:00,36.0,29.0,30.02,SSE,157,4.0,8.0,75,0.00,,,0.00,,2013-02-06 11:22:00,
2013-02-06 05:32:00,35.0,28.0,30.02,SSE,151,2.0,5.0,76,0.00,,,0.00,,2013-02-06 11:32:00,
2013-02-06 05:42:00,35.0,28.0,30.02,SSE,151,2.0,5.0,76,0.00,,,0.00,,2013-02-06 11:42:00,
2013-02-06 05:53:00,35.0,29.0,30.03,SE,137,3.0,6.0,77,0.00,,,0.00,,2013-02-06 11:53:00,
2013-02-06 06:01:00,35.0,29.0,30.02,SE,124,3.0,7.0,77,0.00,,,0.00,,2013-02-06 12:01:00,
2013-02-06 06:12:00,35.0,29.0,30.02,SE,124,3.0,7.0,77,0.00,,,0.00,,2013-02-06 12:12:00,
2013-02-06 06:22:00,35.0,29.0,30.02,SE,131,4.0,7.0,77,0.00,,,0.00,,2013-02-06 12:22:00,
2013-02-06 06:32:00,34.0,28.0,30.02,SE,132,1.0,7.0,77,0.00,,,0.00,,2013-02-06 12:32:00,
2013-02-06 06:42:00,34.0,28.0,30.02,SE,132,1.0,7.0,77,0.00,,,0.00,,2013-02-06 12:42:00,
2013-02-06 06:52:00,33.0,27.0,30.02,ESE,117,2.0,6.0,78,0.00,,,0.00,,2013-02-06 12:52:00,
2013-02-06 07:01:00,33.0,28.0,30.02,SE,142,2.0,5.0,81,0.00,,,0.00,,2013-02-06 13:01:00,
2013-02-06 07:11:00,33.0,28.0,30.02,SE,142,2.0,5.0,81,0.00,,,0.00,,2013-02-06 13:11:00,
2013-02-06 07:22:00,33.0,28.0,30.02,SSE,152,4.0,7.0,80,0.00,,,0.00,,2013-02-06 13:22:00,
2013-02-06 07:31:00,33.0,28.0,30.01,SE,140,3.0,6.0,80,0.00,,,0.00,,2013-02-06 13:31:00,
2013-02-06 07:42:00,33.0,28.0,30.01,SE,140,3.0,6.0,80,0.00,,,0.00,,2013-02-06 13:42:00,
2013-02-06 07:52:00,33.0,28.0,30.01,SSE,159,6.0,10.0,81,0.00,,,0.00,,2013-02-06 13:52:00,
2013-02-06 08:01:00,34.0,28.0,30.01,South,169,9.0,12.0,78,0.00,,,0.00,,2013-02-06 14:01:00,
2013-02-06 08:11:00,34.0,28.0,30.01,South,169,9.0,12.0,78,0.00,,,0.00,,2013-02-06 14:11:00,
2013-02-06 08:22:00,35.0,28.0,30.01,South,174,9.0,14.0,76,0.00,,,0.00,,2013-02-06 14:22:00,
2013-02-06 08:32:00,37.0,29.0,30.01,SSE,165,12.0,16.0,73,0.00,,,0.00,,2013-02-06 14:32:00,
2013-02-06 08:41:00,37.0,29.0,30.01,SSE,165,12.0,16.0,73,0.00,,,0.00,,2013-02-06 14:41:00,
2013-02-06 08:52:00,38.0,29.0,30.01,SSE,162,12.0,15.0,71,0.00,,,0.00,,2013-02-06 14:52:00,
2013-02-06 09:01:00,39.0,30.0,30.01,South,170,10.0,15.0,70,0.00,,,0.00,,2013-02-06 15:01:00,
2013-02-06 09:11:00,41.0,31.0,30.01,SSE,157,11.0,16.0,67,0.00,,,0.00,,2013-02-06 15:11:00,
2013-02-06 09:21:00,41.0,31.0,30.01,SSE,157,11.0,16.0,67,0.00,,,0.00,,2013-02-06 15:21:00,
2013-02-06 09:31:00,42.0,32.0,30.00,SSE,165,10.0,20.0,67,0.00,,,0.00,,2013-02-06 15:31:00,
2013-02-06 09:41:00,42.0,32.0,30.00,SSE,165,10.0,20.0,67,0.00,,,0.00,,2013-02-06 15:41:00,
2013-02-06 09:52:00,44.0,32.0,30.00,SSE,160,12.0,19.0,63,0.00,,,0.00,,2013-02-06 15:52:00,
2013-02-06 10:01:00,46.0,34.0,29.99,SSE,157,10.0,19.0,63,0.00,,,0.00,,2013-02-06 16:01:00,
2013-02-06 10:21:00,47.0,33.0,29.99,SSE,161,14.0,20.0,59,0.00,,,0.00,,2013-02-06 16:21:00,
2013-02-06 10:32:00,49.0,35.0,29.98,SSW,198,11.0,19.0,59,0.00,,,0.00,,2013-02-06 16:32:00,
2013-02-06 10:52:00,51.0,35.0,29.98,SSW,196,14.0,21.0,54,0.00,,,0.00,,2013-02-06 16:52:00,
2013-02-06 11:02:00,52.0,34.0,29.98,South,179,15.0,21.0,50,0.00,,,0.00,,2013-02-06 17:02:00,
2013-02-06 11:11:00,52.0,34.0,29.98,South,179,15.0,21.0,50,0.00,,,0.00,,2013-02-06 17:11:00,
2013-02-06 11:21:00,53.0,34.0,29.98,SSW,202,15.0,26.0,49,0.00,,,0.00,,2013-02-06 17:21:00,
2013-02-06 11:32:00,55.0,35.0,29.96,South,169,13.0,21.0,47,0.00,,,0.00,,2013-02-06 17:32:00,
2013-02-06 11:41:00,56.0,35.0,29.95,South,172,15.0,22.0,45,0.00,,,0.00,,2013-02-06 17:41:00,
2013-02-06 11:52:00,56.0,35.0,29.95,South,172,15.0,22.0,45,0.00,,,0.00,,2013-02-06 17:52:00,
2013-02-06 12:01:00,58.0,36.0,29.95,SSW,202,15.0,23.0,44,0.00,,,0.00,,2013-02-06 18:01:00,
2013-02-06 12:11:00,58.0,36.0,29.94,SSW,205,16.0,22.0,44,0.00,,,0.00,,2013-02-06 18:11:00,
2013-02-06 12:23:00,58.0,36.0,29.94,SSW,205,16.0,22.0,44,0.00,,,0.00,,2013-02-06 18:23:00,
2013-02-06 12:32:00,58.0,36.0,29.93,South,186,18.0,24.0,43,0.00,,,0.00,,2013-02-06 18:32:00,
2013-02-06 12:42:00,58.0,36.0,29.93,South,186,18.0,24.0,43,0.00,,,0.00,,2013-02-06 18:42:00,
2013-02-06 12:52:00,58.0,36.0,29.92,SW,217,15.0,24.0,44,0.00,,,0.00,,2013-02-06 18:52:00,
2013-02-06 13:01:00,58.0,37.0,29.91,SSW,200,19.0,26.0,45,0.00,,,0.00,,2013-02-06 19:01:00,
2013-02-06 13:11:00,58.0,37.0,29.91,SSW,200,19.0,26.0,45,0.00,,,0.00,,2013-02-06 19:11:00,
2013-02-06 13:21:00,59.0,38.0,29.90,SSW,205,14.0,28.0,45,0.00,,,0.00,,2013-02-06 19:21:00,
2013-02-06 13:31:00,60.0,39.0,29.89,SW,216,17.0,23.0,45,0.00,,,0.00,,2013-02-06 19:31:00,
2013-02-06 13:41:00,60.0,39.0,29.89,SW,216,17.0,23.0,45,0.00,,,0.00,,2013-02-06 19:41:00,
2013-02-06 13:52:00,60.0,39.0,29.88,South,191,15.0,23.0,46,0.00,,,0.00,,2013-02-06 19:52:00,
2013-02-06 14:01:00,61.0,40.0,29.86,SSW,209,14.0,24.0,46,0.00,,,0.00,,2013-02-06 20:01:00,
2013-02-06 14:11:00,61.0,42.0,29.85,SSW,200,20.0,27.0,49,0.00,,,0.00,,2013-02-06 20:11:00,
2013-02-06 14:21:00,61.0,42.0,29.85,SSW,200,20.0,27.0,49,0.00,,,0.00,,2013-02-06 20:21:00,
2013-02-06 14:31:00,62.0,43.0,29.85,South,188,13.0,22.0,50,0.00,,,0.00,,2013-02-06 20:31:00,
2013-02-06 14:41:00,62.0,43.0,29.85,South,188,13.0,22.0,50,0.00,,,0.00,,2013-02-06 20:41:00,
2013-02-06 14:52:00,63.0,44.0,29.84,South,180,14.0,21.0,49,0.00,,,0.00,,2013-02-06 20:52:00,
2013-02-06 15:01:00,63.0,44.0,29.84,SW,221,12.0,22.0,49,0.00,,,0.00,,2013-02-06 21:01:00,
2013-02-06 15:11:00,63.0,44.0,29.84,SW,221,12.0,22.0,49,0.00,,,0.00,,2013-02-06 21:11:00,
2013-02-06 15:21:00,62.0,45.0,29.83,SSW,197,13.0,26.0,53,0.00,,,0.00,,2013-02-06 21:21:00,
2013-02-06 15:32:00,61.0,46.0,29.83,SSW,209,18.0,26.0,58,0.00,,,0.00,,2013-02-06 21:32:00,
2013-02-06 15:41:00,61.0,46.0,29.83,SSW,209,18.0,26.0,58,0.00,,,0.00,,2013-02-06 21:41:00,
2013-02-06 15:52:00,61.0,47.0,29.83,SW,217,14.0,20.0,61,0.00,,,0.00,,2013-02-06 21:52:00,
2013-02-06 16:01:00,61.0,47.0,29.83,WSW,239,11.0,22.0,61,0.00,,,0.00,,2013-02-06 22:01:00,
2013-02-06 16:11:00,61.0,47.0,29.83,WSW,239,11.0,22.0,61,0.00,,,0.00,,2013-02-06 22:11:00,
2013-02-06 16:21:00,61.0,48.0,29.83,SSW,212,16.0,25.0,63,0.00,,,0.00,,2013-02-06 22:21:00,
2013-02-06 16:31:00,61.0,49.0,29.82,SSW,211,16.0,22.0,65,0.00,,,0.00,,2013-02-06 22:31:00,
2013-02-06 16:41:00,61.0,49.0,29.82,SSW,211,16.0,22.0,65,0.00,,,0.00,,2013-02-06 22:41:00,
2013-02-06 16:52:00,60.0,49.0,29.82,SSW,211,16.0,22.0,67,0.00,,,0.00,,2013-02-06 22:52:00,
2013-02-06 17:01:00,60.0,49.0,29.82,SW,219,13.0,21.0,68,0.00,,,0.00,,2013-02-06 23:01:00,
2013-02-06 17:11:00,60.0,49.0,29.82,SW,219,13.0,21.0,68,0.00,,,0.00,,2013-02-06 23:11:00,
2013-02-06 17:21:00,60.0,49.0,29.81,SSW,209,10.0,18.0,68,0.00,,,0.00,,2013-02-06 23:21:00,
2013-02-06 17:31:00,59.0,49.0,29.82,SW,217,9.0,14.0,70,0.00,,,0.00,,2013-02-06 23:31:00,
2013-02-06 17:41:00,59.0,49.0,29.82,SW,217,9.0,14.0,70,0.00,,,0.00,,2013-02-06 23:41:00,
2013-02-06 17:52:00,58.0,49.0,29.82,SSW,209,6.0,12.0,72,0.00,,,0.00,,2013-02-06 23:52:00,
2013-02-06 18:01:00,58.0,49.0,29.82,SSW,196,4.0,7.0,73,0.00,,,0.00,,2013-02-07 00:01:00,
2013-02-06 18:11:00,58.0,49.0,29.82,SSW,196,4.0,7.0,73,0.00,,,0.00,,2013-02-07 00:11:00,
2013-02-06 18:21:00,57.0,49.0,29.83,SSW,211,6.0,9.0,75,0.00,,,0.00,,2013-02-07 00:21:00,
2013-02-06 18:31:00,57.0,50.0,29.83,SSW,211,5.0,7.0,76,0.00,,,0.00,,2013-02-07 00:31:00,
2013-02-06 18:41:00,57.0,50.0,29.83,SSW,211,5.0,7.0,76,0.00,,,0.00,,2013-02-07 00:41:00,
2013-02-06 18:52:00,56.0,49.0,29.83,SSW,205,5.0,8.0,78,0.00,,,0.00,,2013-02-07 00:52:00,
2013-02-06 19:01:00,56.0,50.0,29.83,SSW,195,5.0,7.0,80,0.00,,,0.00,,2013-02-07 01:01:00,
2013-02-06 19:11:00,56.0,50.0,29.83,SSW,195,5.0,7.0,80,0.00,,,0.00,,2013-02-07 01:11:00,
2013-02-06 19:21:00,57.0,51.0,29.84,SW,216,6.0,14.0,80,0.00,,,0.00,,2013-02-07 01:21:00,
2013-02-06 19:31:00,57.0,51.0,29.85,SW,227,7.0,10.0,81,0.00,,,0.00,,2013-02-07 01:31:00,
2013-02-06 19:41:00,57.0,51.0,29.85,SW,227,7.0,10.0,81,0.00,,,0.00,,2013-02-07 01:41:00,
2013-02-06 19:52:00,57.0,51.0,29.85,WSW,237,6.0,8.0,81,0.00,,,0.00,,2013-02-07 01:52:00,
2013-02-06 20:01:00,56.0,51.0,29.85,WSW,244,5.0,10.0,82,0.00,,,0.00,,2013-02-07 02:01:00,
2013-02-06 20:11:00,56.0,51.0,29.85,WSW,244,5.0,10.0,82,0.00,,,0.00,,2013-02-07 02:11:00,
2013-02-06 20:21:00,55.0,50.0,29.86,WSW,251,6.0,9.0,83,0.00,,,0.00,,2013-02-07 02:21:00,
2013-02-06 20:31:00,55.0,50.0,29.86,SW,232,7.0,10.0,84,0.00,,,0.00,,2013-02-07 02:31:00,
2013-02-06 20:41:00,55.0,50.0,29.86,SW,232,7.0,10.0,84,0.00,,,0.00,,2013-02-07 02:41:00,
2013-02-06 20:52:00,55.0,50.0,29.86,SW,232,7.0,10.0,84,0.00,,,0.00,,2013-02-07 02:52:00,
2013-02-06 21:02:00,54.0,50.0,29.86,West,264,6.0,9.0,85,0.00,,,0.00,,2013-02-07 03:02:00,
2013-02-06 21:11:00,54.0,50.0,29.86,West,264,6.0,9.0,85,0.00,,,0.00,,2013-02-07 03:11:00,
2013-02-06 21:21:00,54.0,50.0,29.86,WSW,246,5.0,8.0,85,0.00,,,0.00,,2013-02-07 03:21:00,
2013-02-06 21:31:00,54.0,49.0,29.86,SSW,203,6.0,9.0,84,0.00,,,0.00,,2013-02-07 03:31:00,
2013-02-06 21:41:00,54.0,49.0,29.86,SSW,203,6.0,9.0,84,0.00,,,0.00,,2013-02-07 03:41:00,
2013-02-06 21:52:00,53.0,49.0,29.85,SW,225,6.0,10.0,85,0.00,,,0.00,,2013-02-07 03:52:00,
2013-02-06 22:01:00,52.0,48.0,29.85,WSW,248,6.0,9.0,86,0.00,,,0.00,,2013-02-07 04:01:00,
2013-02-06 22:11:00,52.0,48.0,29.85,WSW,248,6.0,9.0,86,0.00,,,0.00,,2013-02-07 04:11:00,
2013-02-06 22:22:00,51.0,47.0,29.85,SW,230,4.0,7.0,87,0.00,,,0.00,,2013-02-07 04:22:00,
2013-02-06 22:31:00,50.0,47.0,29.85,SSW,197,4.0,7.0,88,0.00,,,0.00,,2013-02-07 04:31:00,
2013-02-06 22:41:00,50.0,47.0,29.85,SSW,197,4.0,7.0,88,0.00,,,0.00,,2013-02-07 04:41:00,
2013-02-06 22:53:00,49.0,46.0,29.86,SW,215,2.0,6.0,90,0.00,,,0.00,,2013-02-07 04:53:00,
2013-02-06 23:02:00,48.0,46.0,29.86,SW,217,0.0,2.0,92,0.00,,,0.00,,2013-02-07 05:02:00,
2013-02-06 23:11:00,48.0,46.0,29.86,SW,217,0.0,2.0,92,0.00,,,0.00,,2013-02-07 05:11:00,
2013-02-06 23:21:00,48.0,46.0,29.86,SW,217,0.0,1.0,93,0.00,,,0.00,,2013-02-07 05:21:00,
2013-02-06 23:32:00,48.0,46.0,29.86,SW,217,0.0,0.0,93,0.00,,,0.00,,2013-02-07 05:32:00,
2013-02-06 23:42:00,48.0,46.0,29.86,SW,217,0.0,0.0,93,0.00,,,0.00,,2013-02-07 05:42:00,
2013-02-06 23:52:00,48.0,46.0,29.87,SW,217,0.0,1.0,94,0.00,,,0.00,,2013-02-07 05:52:00,